Location: Sternwarte_Laufen
(47.9344°N, 12.9346°E)
Time: 07:41:38
(UTC+01:00)

BlueWalker 3 - Pass Details

Date: 11 February 2023
Orbit: 497 x 515 km, 53.2° (Epoch: 23 March)

Event Time Altitude Azimuth Distance (km) Brightness Sun altitude
Rises 18:38:29 0° 296° (WNW) 2,604 6.6 -13.0°
Maximum altitude 18:44:29 53° 215° (SW) 632 2.6 -14.0°
Enters shadow 18:48:04 11° 139° (SE) 1,638 4.2 -14.5°
